| time (UTC) | temp F | wind direction | speed MPH | gust MPH | rain 1hr in | rain 24hr in | rain mn in | humidity % | barometer mb |
| 20260505223816 | 67 | 170 | 3.0 | 5.0 | 0.00 | 0.88 | 0.01 | 62 | 1014.7 |
| 20260505222818 | 66 | 178 | 0.0 | 3.0 | 0.00 | 0.88 | 0.01 | 64 | 1014.9 |
| 20260505221842 | 66 | 324 | 1.0 | 4.0 | 0.00 | 0.88 | 0.01 | 64 | 1015.0 |
| 20260505220816 | 65 | 57 | 1.0 | 6.0 | 0.00 | 0.88 | 0.01 | 65 | 1015.1 |
| 20260505215834 | 65 | 277 | 3.0 | 6.0 | 0.00 | 0.91 | 0.01 | 66 | 1015.1 |
| 20260505214831 | 66 | 250 | 2.0 | 4.0 | 0.00 | 0.91 | 0.01 | 65 | 1015.2 |
| 20260505213810 | 65 | 12 | 2.0 | 6.0 | 0.00 | 0.91 | 0.01 | 65 | 1015.3 |
| 20260505212833 | 67 | 349 | 2.0 | 7.0 | 0.00 | 0.91 | 0.01 | 65 | 1015.3 |
| 20260505211811 | 65 | 197 | 3.0 | 8.0 | 0.00 | 0.91 | 0.01 | 68 | 1015.3 |
| 20260505210803 | 65 | 116 | 2.0 | 8.0 | 0.00 | 0.91 | 0.01 | 67 | 1015.3 |
| 20260505205820 | 65 | 101 | 2.0 | 5.0 | 0.00 | 0.91 | 0.01 | 68 | 1015.4 |
| 20260505204820 | 64 | 156 | 3.0 | 6.0 | 0.00 | 0.91 | 0.01 | 71 | 1015.6 |
| 20260505203820 | 64 | 119 | 2.0 | 5.0 | 0.00 | 0.91 | 0.01 | 71 | 1015.5 |
| 20260505202801 | 63 | 191 | 2.0 | 6.0 | 0.00 | 0.91 | 0.01 | 74 | 1015.7 |
| 20260505201819 | 63 | 287 | 2.0 | 4.0 | 0.00 | 0.91 | 0.01 | 74 | 1015.7 |
| 20260505200813 | 62 | 228 | 3.0 | 5.0 | 0.00 | 0.91 | 0.01 | 74 | 1015.8 |
| 20260505195809 | 62 | 181 | 2.0 | 5.0 | 0.00 | 0.92 | 0.01 | 75 | 1015.8 |
| 20260505194806 | 62 | 181 | 3.0 | 6.0 | 0.00 | 0.92 | 0.01 | 76 | 1015.8 |
| 20260505193803 | 62 | 215 | 3.0 | 5.0 | 0.00 | 0.92 | 0.01 | 76 | 1015.8 |
| 20260505192819 | 62 | 245 | 3.0 | 6.0 | 0.00 | 0.92 | 0.01 | 74 | 1015.8 |
| 20260505191801 | 63 | 232 | 2.0 | 4.0 | 0.00 | 0.92 | 0.01 | 76 | 1015.9 |
| 20260505190840 | 62 | 102 | 3.0 | 5.0 | 0.00 | 0.92 | 0.01 | 74 | 1015.9 |
| 20260505185813 | 61 | 138 | 4.0 | 5.0 | 0.00 | 0.92 | 0.01 | 77 | 1015.9 |
| 20260505184837 | 61 | 96 | 2.0 | 4.0 | 0.00 | 0.92 | 0.01 | 78 | 1015.8 |
| 20260505183813 | 61 | 95 | 2.0 | 6.0 | 0.00 | 0.92 | 0.01 | 79 | 1015.7 |
| 20260505182814 | 60 | 128 | 3.0 | 6.0 | 0.00 | 0.92 | 0.01 | 80 | 1015.9 |
| 20260505181813 | 60 | 159 | 1.0 | 6.0 | 0.00 | 0.92 | 0.01 | 80 | 1015.8 |
| 20260505180830 | 59 | 172 | 2.0 | 5.0 | 0.00 | 0.92 | 0.01 | 82 | 1015.7 |
| 20260505175830 | 59 | 182 | 1.0 | 4.0 | 0.00 | 0.95 | 0.01 | 83 | 1015.6 |
| 20260505174812 | 59 | 124 | 2.0 | 4.0 | 0.00 | 0.95 | 0.01 | 84 | 1015.5 |
| 20260505173813 | 59 | 104 | 2.0 | 4.0 | 0.00 | 0.95 | 0.01 | 86 | 1015.5 |
| 20260505172814 | 57 | 123 | 3.0 | 7.0 | 0.00 | 0.95 | 0.01 | 88 | 1015.5 |
| 20260505171816 | 56 | 236 | 4.0 | 5.0 | 0.00 | 0.95 | 0.01 | 90 | 1015.5 |
| 20260505170814 | 56 | 137 | 2.0 | 4.0 | 0.00 | 0.95 | 0.01 | 91 | 1015.5 |
| 20260505165813 | 56 | 99 | 2.0 | 6.0 | 0.00 | 0.95 | 0.01 | 92 | 1015.5 |
| 20260505164814 | 55 | 135 | 3.0 | 6.0 | 0.00 | 0.95 | 0.01 | 92 | 1015.5 |
| 20260505163815 | 55 | 123 | 1.0 | 7.0 | 0.00 | 0.95 | 0.01 | 93 | 1015.4 |
| 20260505162810 | 55 | 116 | 3.0 | 7.0 | 0.00 | 0.95 | 0.01 | 93 | 1015.4 |
| 20260505161815 | 55 | 151 | 4.0 | 7.0 | 0.00 | 0.95 | 0.01 | 93 | 1015.4 |
| 20260505160817 | 54 | 162 | 4.0 | 8.0 | 0.00 | 0.95 | 0.01 | 94 | 1015.4 |
| 20260505152817 | 53 | 164 | 3.0 | 7.0 | 0.00 | 0.95 | 0.01 | 94 | 1015.3 |
| 20260505151820 | 53 | 155 | 3.0 | 7.0 | 0.00 | 0.95 | 0.01 | 94 | 1015.3 |
| 20260505150801 | 53 | 122 | 2.0 | 5.0 | 0.00 | 0.95 | 0.01 | 94 | 1015.2 |
| 20260505124804 | 53 | 141 | 2.0 | 6.0 | 0.00 | 0.95 | 0.01 | 94 | 1014.3 |
| 20260505123828 | 52 | 147 | 2.0 | 6.0 | 0.00 | 0.95 | 0.01 | 94 | 1014.3 |
| 20260505122815 | 52 | 174 | 3.0 | 7.0 | 0.00 | 0.95 | 0.01 | 94 | 1014.2 |
| 20260505121816 | 52 | 171 | 2.0 | 5.0 | 0.00 | 0.95 | 0.01 | 94 | 1014.1 |
| 20260505120817 | 52 | 168 | 3.0 | 5.0 | 0.00 | 0.95 | 0.01 | 94 | 1014.1 |
| 20260505115803 | 52 | 167 | 3.0 | 6.0 | 0.00 | 0.95 | 0.01 | 94 | 1014.3 |
| 20260505114820 | 52 | 166 | 2.0 | 6.0 | 0.00 | 0.95 | 0.01 | 94 | 1014.3 |
| 20260505113803 | 52 | 147 | 2.0 | 5.0 | 0.00 | 0.95 | 0.01 | 94 | 1014.4 |
| 20260505112828 | 52 | 168 | 3.0 | 6.0 | 0.00 | 0.95 | 0.01 | 94 | 1014.5 |
| 20260505111808 | 53 | 161 | 2.0 | 8.0 | 0.00 | 0.95 | 0.01 | 93 | 1014.5 |
| 20260505110816 | 53 | 182 | 2.0 | 4.0 | 0.00 | 0.95 | 0.01 | 93 | 1014.3 |
| 20260505101810 | 53 | 153 | 3.0 | 8.0 | 0.00 | 0.95 | 0.01 | 93 | 1014.3 |
| 20260505100811 | 53 | 147 | 5.0 | 9.0 | 0.00 | 0.95 | 0.01 | 93 | 1014.3 |
| 20260505095830 | 53 | 162 | 4.0 | 9.0 | 0.00 | 0.95 | 0.01 | 93 | 1014.3 |
| 20260505094813 | 53 | 161 | 2.0 | 7.0 | 0.00 | 0.95 | 0.01 | 93 | 1014.4 |
| 20260505093829 | 53 | 185 | 2.0 | 4.0 | 0.00 | 0.95 | 0.01 | 93 | 1014.6 |
| 20260505092807 | 53 | 146 | 2.0 | 4.0 | 0.00 | 0.95 | 0.01 | 93 | 1014.8 |
| 20260505091809 | 53 | 155 | 2.0 | 5.0 | 0.00 | 0.95 | 0.01 | 93 | 1014.6 |
| 20260505090807 | 53 | 162 | 1.0 | 4.0 | 0.00 | 0.95 | 0.01 | 93 | 1014.8 |
| 20260505085808 | 53 | 163 | 3.0 | 4.0 | 0.00 | 0.95 | 0.01 | 93 | 1014.9 |
| 20260505084813 | 53 | 137 | 1.0 | 5.0 | 0.00 | 0.95 | 0.01 | 93 | 1015.0 |
| 20260505083812 | 53 | 130 | 2.0 | 5.0 | 0.00 | 0.95 | 0.01 | 93 | 1015.1 |
| 20260505082814 | 53 | 118 | 1.0 | 4.0 | 0.00 | 0.95 | 0.01 | 93 | 1015.1 |
| 20260505081816 | 53 | 126 | 2.0 | 4.0 | 0.00 | 0.95 | 0.01 | 93 | 1015.1 |
| 20260505080815 | 53 | 130 | 0.0 | 2.0 | 0.01 | 0.95 | 0.01 | 93 | 1015.0 |
| 20260505075818 | 53 | 132 | 1.0 | 2.0 | 0.01 | 0.95 | 0.01 | 93 | 1014.9 |
| 20260505074801 | 53 | 129 | 0.0 | 0.0 | 0.02 | 0.95 | 0.01 | 93 | 1015.0 |
| 20260505073819 | 53 | 128 | 0.0 | 0.0 | 0.02 | 0.95 | 0.01 | 93 | 1015.1 |
| 20260505072819 | 53 | 112 | 0.0 | 0.0 | 0.03 | 0.95 | 0.01 | 93 | 1015.2 |
| 20260505071805 | 53 | 95 | 0.0 | 2.0 | 0.04 | 0.95 | 0.01 | 93 | 1015.3 |
| 20260505070808 | 53 | 107 | 0.0 | 3.0 | 0.03 | 0.94 | 0.00 | 93 | 1015.2 |
| 20260505065841 | 53 | 118 | 0.0 | 3.0 | 0.04 | 0.94 | 0.94 | 93 | 1015.1 |
| 20260505064807 | 53 | 111 | 1.0 | 3.0 | 0.05 | 0.93 | 0.93 | 93 | 1015.1 |
| 20260505063803 | 54 | 119 | 1.0 | 4.0 | 0.08 | 0.93 | 0.93 | 93 | 1015.2 |
| 20260505062819 | 54 | 47 | 1.0 | 3.0 | 0.09 | 0.92 | 0.92 | 93 | 1015.4 |
| 20260505061819 | 54 | 110 | 1.0 | 4.0 | 0.10 | 0.91 | 0.91 | 93 | 1015.2 |
| 20260505060814 | 54 | 85 | 0.0 | 2.0 | 0.11 | 0.91 | 0.91 | 93 | 1015.1 |
| 20260505055802 | 54 | 155 | 0.0 | 0.0 | 0.10 | 0.90 | 0.90 | 93 | 1015.0 |
| 20260505054841 | 54 | 152 | 0.0 | 2.0 | 0.08 | 0.88 | 0.88 | 93 | 1015.0 |
| 20260505053813 | 54 | 110 | 0.0 | 2.0 | 0.05 | 0.85 | 0.85 | 93 | 1015.3 |
| 20260505052809 | 54 | 87 | 0.0 | 0.0 | 0.03 | 0.83 | 0.83 | 93 | 1015.3 |
| 20260505051809 | 54 | 82 | 0.0 | 2.0 | 0.04 | 0.81 | 0.81 | 93 | 1015.1 |
| 20260505050826 | 54 | 99 | 0.0 | 4.0 | 0.06 | 0.80 | 0.80 | 92 | 1015.2 |
| 20260505040805 | 54 | 69 | 0.0 | 3.0 | 0.26 | 0.74 | 0.74 | 92 | 1015.2 |
| 20260505035816 | 54 | 64 | 2.0 | 6.0 | 0.23 | 0.68 | 0.68 | 92 | 1015.4 |
| 20260505034813 | 54 | 51 | 0.0 | 2.0 | 0.18 | 0.62 | 0.62 | 92 | 1015.3 |
| 20260505033813 | 54 | 37 | 0.0 | 1.0 | 0.16 | 0.58 | 0.58 | 92 | 1015.2 |
| 20260505032807 | 54 | 29 | 0.0 | 3.0 | 0.13 | 0.54 | 0.54 | 92 | 1015.1 |
| 20260505031828 | 54 | 48 | 1.0 | 5.0 | 0.11 | 0.51 | 0.51 | 92 | 1015.1 |
| 20260505030804 | 54 | 6 | 3.0 | 6.0 | 0.09 | 0.48 | 0.48 | 92 | 1015.4 |
| 20260505025820 | 54 | 18 | 3.0 | 7.0 | 0.08 | 0.45 | 0.45 | 92 | 1015.4 |
| 20260505024815 | 54 | 38 | 3.0 | 5.0 | 0.09 | 0.44 | 0.44 | 91 | 1015.2 |
| 20260505023835 | 54 | 52 | 2.0 | 7.0 | 0.08 | 0.42 | 0.42 | 91 | 1014.9 |
| 20260505022809 | 54 | 110 | 4.0 | 8.0 | 0.09 | 0.41 | 0.41 | 91 | 1014.6 |
| 20260505021806 | 54 | 111 | 5.0 | 8.0 | 0.10 | 0.40 | 0.40 | 91 | 1014.2 |
| 20260505020838 | 54 | 73 | 3.0 | 5.0 | 0.11 | 0.39 | 0.39 | 91 | 1014.3 |
| 20260505015815 | 54 | 82 | 1.0 | 3.0 | 0.09 | 0.37 | 0.37 | 91 | 1014.6 |
| 20260505014837 | 54 | 71 | 2.0 | 5.0 | 0.08 | 0.35 | 0.35 | 91 | 1014.6 |
| 20260505013807 | 54 | 112 | 1.0 | 4.0 | 0.08 | 0.34 | 0.34 | 91 | 1014.7 |
| 20260505012803 | 55 | 97 | 3.0 | 5.0 | 0.07 | 0.32 | 0.32 | 90 | 1014.5 |
| 20260505011803 | 55 | 111 | 2.0 | 4.0 | 0.05 | 0.29 | 0.29 | 90 | 1014.4 |
| 20260505010818 | 55 | 106 | 1.0 | 3.0 | 0.04 | 0.28 | 0.28 | 90 | 1014.4 |
| 20260505005820 | 55 | 97 | 1.0 | 4.0 | 0.04 | 0.28 | 0.28 | 90 | 1014.6 |
| 20260505004837 | 55 | 114 | 1.0 | 3.0 | 0.07 | 0.27 | 0.27 | 90 | 1014.9 |
| 20260505003813 | 55 | 105 | 1.0 | 5.0 | 0.08 | 0.26 | 0.26 | 90 | 1015.2 |
| 20260505002816 | 55 | 120 | 1.0 | 5.0 | 0.08 | 0.25 | 0.25 | 90 | 1015.2 |
| 20260505001819 | 55 | 105 | 3.0 | 9.0 | 0.08 | 0.24 | 0.24 | 90 | 1015.0 |
| 20260505000817 | 56 | 91 | 3.0 | 8.0 | 0.09 | 0.24 | 0.24 | 90 | 1015.0 |
| 20260504235815 | 56 | 69 | 3.0 | 7.0 | 0.10 | 0.23 | 0.23 | 90 | 1015.2 |
| 20260504234816 | 57 | 102 | 3.0 | 5.0 | 0.09 | 0.20 | 0.20 | 90 | 1015.2 |
| 20260504233833 | 56 | 109 | 1.0 | 5.0 | 0.08 | 0.18 | 0.18 | 90 | 1015.1 |
| 20260504232812 | 56 | 96 | 2.0 | 5.0 | 0.08 | 0.17 | 0.17 | 90 | 1015.0 |
| 20260504231811 | 56 | 80 | 3.0 | 6.0 | 0.08 | 0.16 | 0.16 | 89 | 1015.1 |
| 20260504230809 | 57 | 99 | 4.0 | 7.0 | 0.08 | 0.15 | 0.15 | 89 | 1015.2 |
| 20260504225827 | 57 | 96 | 4.0 | 7.0 | 0.06 | 0.13 | 0.13 | 88 | 1015.1 |
| 20260504224807 | 57 | 116 | 2.0 | 5.0 | 0.05 | 0.11 | 0.11 | 88 | 1015.2 |